TimeEDT,TemperatureF,Dew PointF,Humidity,Sea Level PressureIn,VisibilityMPH,Wind Direction,Wind SpeedMPH,Gust SpeedMPH,PrecipitationIn,Events,Conditions,WindDirDegrees,DateUTC
12:15 AM,51.8,46.4,82,30.15,10.0,Calm,Calm,-,N/A,,Clear,0,2013-09-07 04:15:00
12:35 AM,50.0,46.4,87,30.14,10.0,Calm,Calm,-,N/A,,Clear,0,2013-09-07 04:35:00
12:55 AM,50.0,46.4,87,30.13,10.0,SSE,3.5,-,N/A,,Clear,160,2013-09-07 04:55:00
1:15 AM,50.0,46.4,87,30.15,10.0,Calm,Calm,-,N/A,,Clear,0,2013-09-07 05:15:00
1:35 AM,51.8,46.4,82,30.14,10.0,Calm,Calm,-,N/A,,Clear,0,2013-09-07 05:35:00
1:55 AM,48.2,44.6,87,30.13,10.0,Calm,Calm,-,N/A,,Clear,0,2013-09-07 05:55:00
2:15 AM,50.0,44.6,82,30.13,10.0,Calm,Calm,-,N/A,,Clear,0,2013-09-07 06:15:00
2:35 AM,50.0,46.4,87,30.13,10.0,South,3.5,-,N/A,,Clear,170,2013-09-07 06:35:00
2:55 AM,48.2,46.4,93,30.12,10.0,South,3.5,-,N/A,,Clear,180,2013-09-07 06:55:00
3:15 AM,50.0,46.4,87,30.11,10.0,South,5.8,-,N/A,,Clear,170,2013-09-07 07:15:00
3:35 AM,48.2,46.4,93,30.12,10.0,South,3.5,-,N/A,,Clear,180,2013-09-07 07:35:00
3:55 AM,48.2,44.6,87,30.12,10.0,South,4.6,-,N/A,,Clear,170,2013-09-07 07:55:00
4:15 AM,46.4,44.6,93,30.11,2.0,South,4.6,-,N/A,,Clear,180,2013-09-07 08:15:00
4:35 AM,48.2,44.6,87,30.11,10.0,SSW,3.5,-,N/A,,Clear,210,2013-09-07 08:35:00
4:55 AM,48.2,44.6,87,30.10,10.0,South,4.6,-,N/A,,Clear,180,2013-09-07 08:55:00
5:15 AM,48.2,44.6,87,30.11,10.0,South,5.8,-,N/A,,Clear,170,2013-09-07 09:15:00
5:35 AM,48.2,44.6,87,30.10,10.0,South,4.6,-,N/A,,Clear,180,2013-09-07 09:35:00
5:55 AM,48.2,42.8,82,30.10,10.0,South,3.5,-,N/A,,Clear,190,2013-09-07 09:55:00
6:15 AM,48.2,44.6,87,30.10,10.0,South,4.6,-,N/A,,Clear,190,2013-09-07 10:15:00
6:35 AM,48.2,44.6,87,30.10,10.0,South,4.6,-,N/A,,Clear,180,2013-09-07 10:35:00
6:55 AM,48.2,44.6,87,30.10,10.0,South,5.8,-,N/A,,Clear,180,2013-09-07 10:55:00
7:15 AM,48.2,42.8,82,30.10,10.0,South,5.8,-,N/A,,Clear,170,2013-09-07 11:15:00
7:35 AM,50.0,42.8,76,30.11,10.0,South,4.6,-,N/A,,Clear,180,2013-09-07 11:35:00
7:55 AM,50.0,44.6,82,30.10,10.0,South,5.8,-,N/A,,Clear,180,2013-09-07 11:55:00
8:15 AM,50.0,44.6,82,30.09,10.0,South,5.8,-,N/A,,Clear,190,2013-09-07 12:15:00
8:35 AM,51.8,44.6,76,30.09,10.0,South,5.8,-,N/A,,Clear,180,2013-09-07 12:35:00
8:55 AM,51.8,46.4,82,30.10,10.0,South,4.6,-,N/A,,Clear,190,2013-09-07 12:55:00
9:15 AM,55.4,46.4,72,30.09,10.0,South,5.8,-,N/A,,Partly Cloudy,190,2013-09-07 13:15:00
9:35 AM,57.2,44.6,63,30.09,10.0,SSW,6.9,-,N/A,,Clear,210,2013-09-07 13:35:00
9:55 AM,57.2,46.4,67,30.09,10.0,SSW,8.1,-,N/A,,Clear,200,2013-09-07 13:55:00
10:15 AM,57.2,46.4,67,30.09,10.0,SSW,6.9,-,N/A,,Mostly Cloudy,210,2013-09-07 14:15:00
10:35 AM,-9999,-9999,N/A,30.08,10.0,SSW,6.9,-,N/A,,Mostly Cloudy,200,2013-09-07 14:35:00
10:55 AM,57.2,48.2,72,30.07,10.0,South,6.9,-,N/A,,Overcast,180,2013-09-07 14:55:00
11:15 AM,57.2,50.0,77,30.07,10.0,South,4.6,-,N/A,,Overcast,180,2013-09-07 15:15:00
11:35 AM,60.8,48.2,63,30.07,10.0,South,4.6,-,N/A,,Overcast,190,2013-09-07 15:35:00
11:55 AM,60.8,51.8,72,30.07,10.0,SSW,6.9,-,N/A,,Scattered Clouds,200,2013-09-07 15:55:00
12:15 PM,62.6,48.2,59,30.06,10.0,SSW,5.8,-,N/A,,Mostly Cloudy,210,2013-09-07 16:15:00
12:35 PM,64.4,50.0,59,30.04,10.0,South,6.9,-,N/A,,Overcast,190,2013-09-07 16:35:00
12:55 PM,64.4,51.8,64,30.04,10.0,SSW,4.6,-,N/A,,Mostly Cloudy,200,2013-09-07 16:55:00
1:15 PM,66.2,51.8,60,30.03,10.0,SSW,6.9,-,N/A,,Mostly Cloudy,210,2013-09-07 17:15:00
1:35 PM,60.8,51.8,72,30.03,10.0,SSW,6.9,-,N/A,,Overcast,200,2013-09-07 17:35:00
1:55 PM,62.6,53.6,72,30.03,10.0,SSW,8.1,-,N/A,,Overcast,210,2013-09-07 17:55:00
2:15 PM,64.4,51.8,64,30.02,10.0,SSW,8.1,-,N/A,,Overcast,200,2013-09-07 18:15:00
2:35 PM,69.8,51.8,53,30.00,10.0,South,6.9,-,N/A,,Overcast,190,2013-09-07 18:35:00
2:55 PM,68.0,51.8,56,30.02,10.0,NW,9.2,-,N/A,,Overcast,310,2013-09-07 18:55:00
3:15 PM,62.6,55.4,77,30.03,10.0,NNW,11.5,-,0.02,,Overcast,340,2013-09-07 19:15:00
3:35 PM,59.0,55.4,88,30.03,7.0,NNW,8.1,-,0.14,,Overcast,340,2013-09-07 19:35:00
3:55 PM,59.0,55.4,88,30.01,8.0,NE,3.5,-,0.16,,Overcast,50,2013-09-07 19:55:00
4:15 PM,59.0,55.4,88,30.01,10.0,Calm,Calm,-,N/A,,Overcast,0,2013-09-07 20:15:00
4:35 PM,60.8,57.2,88,30.00,10.0,South,6.9,-,N/A,,Overcast,170,2013-09-07 20:35:00
4:55 PM,60.8,57.2,88,29.99,9.0,South,5.8,-,N/A,,Overcast,180,2013-09-07 20:55:00
5:15 PM,60.8,57.2,88,29.99,10.0,South,6.9,-,N/A,,Overcast,180,2013-09-07 21:15:00
5:35 PM,60.8,57.2,88,29.98,10.0,South,5.8,-,N/A,,Overcast,180,2013-09-07 21:35:00
5:55 PM,60.8,57.2,88,29.97,10.0,South,9.2,-,N/A,,Overcast,170,2013-09-07 21:55:00
6:15 PM,60.8,57.2,88,29.97,10.0,South,5.8,-,N/A,,Overcast,180,2013-09-07 22:15:00
6:35 PM,60.8,57.2,88,29.97,10.0,South,5.8,-,N/A,,Overcast,180,2013-09-07 22:35:00
6:55 PM,60.8,57.2,88,29.98,10.0,SSW,4.6,-,N/A,,Overcast,200,2013-09-07 22:55:00
7:15 PM,60.8,57.2,88,29.99,9.0,Calm,Calm,-,0.02,,Overcast,0,2013-09-07 23:15:00
7:35 PM,60.8,57.2,88,29.98,4.0,Calm,Calm,-,0.02,,Overcast,0,2013-09-07 23:35:00
7:55 PM,60.8,57.2,88,29.98,3.0,Calm,Calm,-,0.03,,Overcast,0,2013-09-07 23:55:00
8:15 PM,60.8,57.2,88,29.99,10.0,South,3.5,-,N/A,,Overcast,180,2013-09-08 00:15:00
8:35 PM,60.8,57.2,88,29.98,0.5,South,3.5,-,N/A,,Overcast,180,2013-09-08 00:35:00
8:55 PM,59.0,57.2,94,29.98,2.5,South,5.8,-,N/A,,Overcast,170,2013-09-08 00:55:00
9:15 PM,59.0,57.2,94,29.97,3.0,South,4.6,-,N/A,,Mostly Cloudy,180,2013-09-08 01:15:00
9:35 PM,59.0,57.2,94,29.97,1.0,South,4.6,-,N/A,,Overcast,190,2013-09-08 01:35:00
9:55 PM,59.0,57.2,94,29.96,0.2,South,4.6,-,N/A,,Overcast,190,2013-09-08 01:55:00
10:15 PM,59.0,57.2,94,29.97,4.0,SSW,3.5,-,N/A,,Scattered Clouds,200,2013-09-08 02:15:00
10:35 PM,57.2,57.2,100,29.97,0.5,South,3.5,-,N/A,,Mostly Cloudy,180,2013-09-08 02:35:00
10:55 PM,57.2,55.4,94,29.96,0.5,South,5.8,-,N/A,,Overcast,190,2013-09-08 02:55:00
11:15 PM,57.2,55.4,94,29.96,0.5,South,4.6,-,N/A,,Overcast,190,2013-09-08 03:15:00
11:35 PM,59.0,57.2,94,29.96,5.0,SSW,5.8,-,N/A,,Partly Cloudy,200,2013-09-08 03:35:00
11:55 PM,59.0,57.2,94,29.95,6.0,South,5.8,-,N/A,,Mostly Cloudy,190,2013-09-08 03:55:00